TimeGMT,TemperatureF,Dew PointF,Humidity,Sea Level PressureIn,VisibilityMPH,Wind Direction,Wind SpeedMPH,Gust SpeedMPH,PrecipitationIn,Events,Conditions,WindDirDegrees,DateUTC
12:20 AM,41.0,39.2,93,30.27,1.7,Calm,Calm,-,N/A,,Mostly Cloudy,0,2013-03-03 00:20:00
12:50 AM,41.0,41.0,100,30.27,4.3,SE,3.5,-,N/A,,Mostly Cloudy,140,2013-03-03 00:50:00
1:20 AM,41.0,41.0,100,30.24,6.2,SSE,2.3,-,N/A,,Mostly Cloudy,160,2013-03-03 01:20:00
1:50 AM,41.0,41.0,100,30.24,-9999.0,SE,2.3,-,N/A,,Mostly Cloudy,140,2013-03-03 01:50:00
2:20 AM,41.0,39.2,93,30.24,6.2,Calm,Calm,-,N/A,,Mostly Cloudy,0,2013-03-03 02:20:00
2:50 AM,41.0,39.2,93,30.24,5.6,NW,3.5,-,N/A,,Mostly Cloudy,310,2013-03-03 02:50:00
3:20 AM,41.0,39.2,93,30.24,1.4,Calm,Calm,-,N/A,,Scattered Clouds,0,2013-03-03 03:20:00
3:50 AM,39.2,39.2,100,30.21,6.2,South,2.3,-,N/A,,Overcast,190,2013-03-03 03:50:00
4:20 AM,39.2,39.2,100,30.21,5.0,Calm,Calm,-,N/A,,Overcast,0,2013-03-03 04:20:00
4:50 AM,39.2,39.2,100,30.21,1.8,Calm,Calm,-,N/A,,Overcast,0,2013-03-03 04:50:00
5:20 AM,39.2,39.2,100,30.21,1.2,Calm,Calm,-,N/A,,Mostly Cloudy,0,2013-03-03 05:20:00
5:50 AM,39.2,37.4,93,30.21,4.3,Calm,Calm,-,N/A,,Mostly Cloudy,0,2013-03-03 05:50:00
6:50 AM,39.2,39.2,100,30.21,3.1,SSW,2.3,-,N/A,Fog,Fog,210,2013-03-03 06:50:00
7:20 AM,39.2,37.4,93,30.21,6.2,Calm,Calm,-,N/A,Fog,Shallow Fog,0,2013-03-03 07:20:00
7:50 AM,37.4,37.4,100,30.21,6.2,Calm,Calm,-,N/A,Fog,Shallow Fog,0,2013-03-03 07:50:00
8:20 AM,41.0,41.0,100,30.21,6.2,Calm,Calm,-,N/A,Fog,Mostly Cloudy,0,2013-03-03 08:20:00
8:50 AM,41.0,41.0,100,30.21,6.2,Calm,Calm,-,N/A,Fog,Mostly Cloudy,0,2013-03-03 08:50:00
9:20 AM,42.8,42.8,100,30.18,6.2,Calm,Calm,-,N/A,,Mostly Cloudy,0,2013-03-03 09:20:00
9:50 AM,42.8,42.8,100,30.18,6.2,Calm,Calm,-,N/A,,Scattered Clouds,0,2013-03-03 09:50:00
10:20 AM,46.4,42.8,87,30.18,6.2,Calm,Calm,-,N/A,,Scattered Clouds,0,2013-03-03 10:20:00
10:50 AM,46.4,42.8,87,30.18,6.2,Variable,3.5,-,N/A,,Scattered Clouds,0,2013-03-03 10:50:00
11:20 AM,46.4,42.8,87,30.18,6.2,Variable,3.5,-,N/A,,Scattered Clouds,0,2013-03-03 11:20:00
11:50 AM,46.4,42.8,87,30.18,6.2,Variable,3.5,-,N/A,,Scattered Clouds,0,2013-03-03 11:50:00
12:20 PM,48.2,42.8,82,30.15,6.2,West,5.8,-,N/A,,Scattered Clouds,270,2013-03-03 12:20:00
12:50 PM,48.2,42.8,82,30.15,6.2,Variable,3.5,-,N/A,,Scattered Clouds,0,2013-03-03 12:50:00
1:20 PM,50.0,42.8,76,30.15,6.2,WSW,6.9,-,N/A,,Mostly Cloudy,250,2013-03-03 13:20:00
1:50 PM,50.0,42.8,76,30.12,6.2,WSW,6.9,-,N/A,,Mostly Cloudy,240,2013-03-03 13:50:00
2:20 PM,50.0,42.8,76,30.12,6.2,WSW,8.1,-,N/A,,Mostly Cloudy,250,2013-03-03 14:20:00
2:50 PM,50.0,42.8,76,30.12,6.2,WSW,9.2,-,N/A,,Mostly Cloudy,240,2013-03-03 14:50:00
3:20 PM,48.2,42.8,82,30.09,6.2,SW,6.9,-,N/A,,Mostly Cloudy,230,2013-03-03 15:20:00
3:50 PM,48.2,42.8,82,30.09,6.2,WSW,8.1,-,N/A,,Mostly Cloudy,240,2013-03-03 15:50:00
4:20 PM,48.2,42.8,82,30.09,6.2,WSW,8.1,-,N/A,,Mostly Cloudy,240,2013-03-03 16:20:00
4:50 PM,50.0,42.8,76,30.09,6.2,SW,8.1,-,N/A,,Mostly Cloudy,220,2013-03-03 16:50:00
5:20 PM,46.4,41.0,81,30.09,6.2,SW,6.9,-,N/A,,Mostly Cloudy,220,2013-03-03 17:20:00
5:50 PM,44.6,41.0,87,30.09,6.2,SW,5.8,-,N/A,,Mostly Cloudy,220,2013-03-03 17:50:00
6:20 PM,44.6,41.0,87,30.09,6.2,SW,6.9,-,N/A,,Mostly Cloudy,220,2013-03-03 18:20:00
6:50 PM,44.6,41.0,87,30.09,6.2,SW,9.2,-,N/A,,Mostly Cloudy,230,2013-03-03 18:50:00
7:20 PM,42.8,39.2,87,30.09,6.2,SW,6.9,-,N/A,,Mostly Cloudy,220,2013-03-03 19:20:00
7:50 PM,41.0,39.2,93,30.09,6.2,SW,6.9,-,N/A,,Scattered Clouds,230,2013-03-03 19:50:00
8:20 PM,41.0,39.2,93,30.09,6.2,SW,8.1,-,N/A,,Scattered Clouds,220,2013-03-03 20:20:00
8:50 PM,42.8,39.2,87,30.09,6.2,SW,6.9,-,N/A,,Scattered Clouds,220,2013-03-03 20:50:00
9:20 PM,42.8,39.2,87,30.09,6.2,SW,8.1,-,N/A,,Scattered Clouds,220,2013-03-03 21:20:00
9:50 PM,42.8,39.2,87,30.09,6.2,SW,9.2,-,N/A,,Mostly Cloudy,220,2013-03-03 21:50:00
10:20 PM,42.8,37.4,81,30.09,6.2,SW,9.2,-,N/A,,Mostly Cloudy,220,2013-03-03 22:20:00
10:50 PM,42.8,37.4,81,30.06,6.2,SW,10.4,-,N/A,,Mostly Cloudy,220,2013-03-03 22:50:00
11:20 PM,42.8,37.4,81,30.06,6.2,SW,8.1,-,N/A,,Mostly Cloudy,220,2013-03-03 23:20:00
11:50 PM,41.0,37.4,87,30.06,6.2,WSW,5.8,-,N/A,,Overcast,240,2013-03-03 23:50:00